M I D A S
Marine Information and Data Acquisition System
Tripno 497 of the Zeeleeuw from 2003-05-15 07:18:04 to 2003-05-15 09:40:24
Back to CruiseResearch ActivitiesStationsMapUnderway DataData graphs

EquipmentUnitsComments
TimeDGPSUTC
LatitudeDGPSDM.mWGS84
LongitudeDGPSDM.mWGS84
SpeedMeteo Stationm/sRelative wind speed
DirectionMeteo StationdegRelative wind direction
TemperatureMeteo Stationdeg CelciusAir temperature
PressureMeteo StationPaAtmospheric pressure
HumidityMeteo Station%Relative humidity
Missing or incorrect values are displayed as -999
Metereological data collected by the RV Zeeleeuw from 2003-05-15 07:18:04 to 2003-05-15 09:40:24
                                                                                    Next 1000 lines
Time Latitude Longitude Speed Direction Temperature Pressure Humidity
2003-05-15 07:18:10 51°13.6 2°56.1 1 176 11.6 102410 68
2003-05-15 07:18:16 51°13.6 2°56.1 1.2 195 11.6 102410 68
2003-05-15 07:18:20 51°13.6 2°56.1 0.8 196 11.5 102410 68
2003-05-15 07:18:26 51°13.6 2°56.1 0.6 231 11.5 102410 68
2003-05-15 07:18:30 51°13.6 2°56.1 0.8 245 11.5 102410 68
2003-05-15 07:18:36 51°13.6 2°56.09 0.9 259 11.5 102410 68
2003-05-15 07:18:40 51°13.6 2°56.09 1.4 262 11.5 102410 68
2003-05-15 07:18:48 51°13.61 2°56.08 1.3 258 11.5 102410 68
2003-05-15 07:18:52 51°13.61 2°56.08 1.2 247 11.5 102410 68
2003-05-15 07:18:58 51°13.61 2°56.07 1.3 254 11.5 102410 68
2003-05-15 07:19:02 51°13.61 2°56.07 1.2 267 11.4 102410 68
2003-05-15 07:19:08 51°13.61 2°56.06 0.9 281 11.4 102410 68
2003-05-15 07:19:14 51°13.61 2°56.05 1.2 282 11.4 102410 68
2003-05-15 07:19:18 51°13.62 2°56.04 1.4 273 11.4 102410 68
2003-05-15 07:19:24 51°13.62 2°56.03 1.5 265 11.4 102410 68
2003-05-15 07:19:30 51°13.62 2°56.02 1.9 248 11.4 102410 68
2003-05-15 07:19:34 51°13.62 2°56.01 1.8 248 11.4 102410 69
2003-05-15 07:19:40 51°13.63 2°56 1.8 248 11.4 102410 69
2003-05-15 07:19:44 51°13.63 2°55.99 1.8 248 11.4 102410 69
2003-05-15 07:19:50 51°13.63 2°55.98 1.8 248 11.4 102410 69
2003-05-15 07:19:56 51°13.63 2°55.97 1.8 248 11.4 102410 69
2003-05-15 07:20:00 51°13.63 2°55.96 1.8 248 11.4 102410 69
2003-05-15 07:20:06 51°13.64 2°55.95 1.8 248 11.3 102410 68
2003-05-15 07:20:10 51°13.64 2°55.94 1.8 248 11.3 102410 68
2003-05-15 07:20:16 51°13.64 2°55.93 1.8 248 11.3 102410 68
2003-05-15 07:20:20 51°13.65 2°55.92 1.8 248 11.3 102410 68
2003-05-15 07:20:26 51°13.65 2°55.91 1.8 248 11.3 102410 69
2003-05-15 07:20:30 51°13.65 2°55.9 1.8 248 11.3 102410 69
2003-05-15 07:20:36 51°13.65 2°55.89 1.8 248 11.3 102410 69
2003-05-15 07:20:40 51°13.66 2°55.88 1.8 248 11.3 102410 69
2003-05-15 07:20:46 51°13.66 2°55.87 1.8 248 11.3 102410 69
2003-05-15 07:20:50 51°13.66 2°55.86 1.8 248 11.3 102410 69
2003-05-15 07:20:56 51°13.67 2°55.85 1.8 248 11.3 102410 69
2003-05-15 07:21:00 51°13.67 2°55.84 1.8 248 11.3 102410 69
2003-05-15 07:21:06 51°13.67 2°55.83 1.8 248 11.2 102410 69
2003-05-15 07:21:10 51°13.67 2°55.82 1.8 248 11.2 102410 69
2003-05-15 07:21:16 51°13.67 2°55.82 1.8 248 11.2 102410 69
2003-05-15 07:21:20 51°13.68 2°55.81 1.8 248 11.2 102410 69
2003-05-15 07:21:24 51°13.68 2°55.8 1.8 248 11.2 102410 69
2003-05-15 07:21:28 51°13.68 2°55.8 1.8 248 11.2 102410 69
2003-05-15 07:21:32 51°13.68 2°55.79 1.8 248 11.2 102410 69
2003-05-15 07:21:38 51°13.68 2°55.78 1.8 248 11.2 102410 69
2003-05-15 07:21:42 51°13.68 2°55.78 1.8 248 11.2 102410 69
2003-05-15 07:21:46 51°13.68 2°55.77 1.8 248 11.2 102410 69
2003-05-15 07:21:50 51°13.68 2°55.77 1.8 248 11.2 102410 69
2003-05-15 07:21:56 51°13.68 2°55.77 1.8 248 11.2 102410 69
2003-05-15 07:22:00 51°13.68 2°55.76 1.8 248 11.2 102410 69
2003-05-15 07:22:06 51°13.68 2°55.76 1.8 248 11.2 102410 69
2003-05-15 07:22:10 51°13.69 2°55.76 1.8 248 11.2 102410 69
2003-05-15 07:22:16 51°13.69 2°55.76 1.8 248 11.2 102410 69
2003-05-15 07:22:20 51°13.69 2°55.76 1.8 248 11.2 102410 69
2003-05-15 07:22:26 51°13.69 2°55.76 1.8 248 11.2 102410 69
2003-05-15 07:22:32 51°13.69 2°55.76 1.8 248 11.2 102410 69
2003-05-15 07:22:36 51°13.69 2°55.76 1.8 248 11.2 102410 69
2003-05-15 07:22:40 51°13.69 2°55.76 1.8 248 11.2 102410 69
2003-05-15 07:22:46 51°13.69 2°55.76 1.8 248 11.2 102410 69
2003-05-15 07:22:52 51°13.69 2°55.77 1.8 248 11.1 102410 69
2003-05-15 07:22:56 51°13.69 2°55.77 1.8 248 11.1 102410 69
2003-05-15 07:23:00 51°13.69 2°55.77 1.8 248 11.1 102410 69
2003-05-15 07:23:06 51°13.7 2°55.77 1.8 248 11.1 102410 69
2003-05-15 07:23:10 51°13.7 2°55.77 1.8 248 11.1 102410 70
2003-05-15 07:23:16 51°13.7 2°55.77 1.8 248 11.1 102410 70
2003-05-15 07:23:20 51°13.7 2°55.77 1.8 248 11.1 102410 69
2003-05-15 07:23:26 51°13.7 2°55.77 1.8 248 11.1 102410 69
2003-05-15 07:23:30 51°13.7 2°55.77 1.8 248 11.1 102410 69
2003-05-15 07:23:36 51°13.69 2°55.76 1.8 248 11.1 102410 69
2003-05-15 07:23:40 51°13.69 2°55.76 1.8 248 11 102410 69
2003-05-15 07:23:48 51°13.69 2°55.76 1.8 248 11 102410 69
2003-05-15 07:23:52 51°13.69 2°55.76 1.8 248 11 102410 69
2003-05-15 07:23:58 51°13.69 2°55.76 1.8 248 11 102410 69
2003-05-15 07:24:02 51°13.69 2°55.75 1.8 248 11 102410 69
2003-05-15 07:24:08 51°13.68 2°55.75 1.8 248 11 102410 69
2003-05-15 07:24:12 51°13.68 2°55.75 1.8 248 10.9 102410 69
2003-05-15 07:24:18 51°13.68 2°55.75 1.8 248 10.9 102410 69
2003-05-15 07:24:24 51°13.68 2°55.75 1.8 248 10.9 102410 69
2003-05-15 07:24:28 51°13.69 2°55.75 1.8 248 10.9 102410 69
2003-05-15 07:24:34 51°13.69 2°55.75 1.8 248 10.9 102410 69
2003-05-15 07:24:40 51°13.69 2°55.75 1.8 248 10.9 102410 69
2003-05-15 07:24:44 51°13.69 2°55.75 1.8 248 10.9 102410 70
2003-05-15 07:24:50 51°13.69 2°55.75 1.8 248 10.9 102410 70
2003-05-15 07:24:56 51°13.69 2°55.75 1.8 248 10.9 102410 70
2003-05-15 07:25:00 51°13.7 2°55.75 1.8 248 10.9 102410 70
2003-05-15 07:25:06 51°13.7 2°55.74 1.8 248 10.9 102410 70
2003-05-15 07:25:10 51°13.7 2°55.74 1.8 248 10.9 102410 70
2003-05-15 07:25:16 51°13.71 2°55.74 1.8 248 10.9 102410 70
2003-05-15 07:25:20 51°13.71 2°55.73 1.8 248 10.9 102410 70
2003-05-15 07:25:24 51°13.71 2°55.73 1.8 248 10.9 102410 70
2003-05-15 07:25:28 51°13.71 2°55.73 1.8 248 10.9 102410 70
2003-05-15 07:25:34 51°13.72 2°55.72 1.8 248 10.9 102410 70
2003-05-15 07:25:38 51°13.72 2°55.72 1.8 248 10.9 102410 70
2003-05-15 07:25:42 51°13.73 2°55.72 1.8 248 10.9 102410 70
2003-05-15 07:25:46 51°13.73 2°55.71 1.8 248 10.9 102410 70
2003-05-15 07:25:50 51°13.73 2°55.71 1.8 248 10.9 102410 70
2003-05-15 07:25:56 51°13.74 2°55.7 1.8 248 10.9 102410 70
2003-05-15 07:26:00 51°13.75 2°55.7 1.8 248 10.9 102410 70
2003-05-15 07:26:06 51°13.75 2°55.69 1.8 248 10.9 102410 70
2003-05-15 07:26:10 51°13.76 2°55.69 1.8 248 10.9 102410 70
2003-05-15 07:26:16 51°13.77 2°55.68 1.8 248 10.9 102410 70
2003-05-15 07:26:20 51°13.77 2°55.67 1.8 248 10.9 102410 70
2003-05-15 07:26:26 51°13.78 2°55.67 1.8 248 10.9 102410 70
2003-05-15 07:26:30 51°13.79 2°55.66 1.8 248 10.9 102410 70
2003-05-15 07:26:36 51°13.8 2°55.65 1.8 248 10.9 102410 70
2003-05-15 07:26:40 51°13.8 2°55.65 1.8 248 10.8 102410 70
2003-05-15 07:26:46 51°13.81 2°55.64 1.8 248 10.8 102410 70
2003-05-15 07:26:50 51°13.82 2°55.64 1.8 248 10.8 102410 70
2003-05-15 07:26:56 51°13.83 2°55.63 1.8 248 10.8 102410 70
2003-05-15 07:27:00 51°13.83 2°55.62 1.8 248 10.8 102410 70
2003-05-15 07:27:06 51°13.84 2°55.62 1.8 248 10.8 102410 70
2003-05-15 07:27:10 51°13.85 2°55.61 1.8 248 10.8 102410 70
2003-05-15 07:27:16 51°13.86 2°55.6 1.8 248 10.8 102410 70
2003-05-15 07:27:20 51°13.87 2°55.6 1.8 248 10.8 102410 71
2003-05-15 07:27:26 51°13.87 2°55.59 1.8 248 10.8 102410 71
2003-05-15 07:27:30 51°13.88 2°55.59 1.8 248 10.8 102410 71
2003-05-15 07:27:36 51°13.89 2°55.58 1.8 248 10.8 102410 71
2003-05-15 07:27:40 51°13.9 2°55.58 1.8 248 10.8 102410 71
2003-05-15 07:27:46 51°13.91 2°55.57 1.8 248 10.8 102410 71
2003-05-15 07:27:50 51°13.92 2°55.56 1.8 248 10.8 102410 71
2003-05-15 07:27:56 51°13.93 2°55.56 1.8 248 10.8 102410 71
2003-05-15 07:28:00 51°13.94 2°55.55 1.8 248 10.8 102410 70
2003-05-15 07:28:06 51°13.95 2°55.54 1.8 248 10.8 102410 70
2003-05-15 07:28:10 51°13.96 2°55.54 1.8 248 10.7 102410 70
2003-05-15 07:28:16 51°13.97 2°55.53 1.8 248 10.7 102410 70
2003-05-15 07:28:20 51°13.98 2°55.52 1.8 248 10.7 102410 70
2003-05-15 07:28:26 51°14 2°55.51 1.8 248 10.7 102410 70
2003-05-15 07:28:32 51°14.01 2°55.5 1.8 248 10.7 102410 70
2003-05-15 07:28:36 51°14.02 2°55.5 1.8 248 10.7 102410 70
2003-05-15 07:28:40 51°14.03 2°55.49 1.8 248 10.7 102400 70
2003-05-15 07:28:46 51°14.04 2°55.48 1.8 248 10.7 102400 70
2003-05-15 07:28:50 51°14.05 2°55.48 1.8 248 10.7 102410 70
2003-05-15 07:28:56 51°14.06 2°55.46 1.8 248 10.7 102410 70
2003-05-15 07:29:00 51°14.07 2°55.46 1.8 248 10.7 102410 69
2003-05-15 07:29:06 51°14.09 2°55.45 1.8 248 10.7 102410 69
2003-05-15 07:29:10 51°14.1 2°55.44 1.8 248 10.6 102410 69
2003-05-15 07:29:16 51°14.11 2°55.43 1.8 248 10.6 102410 69
2003-05-15 07:29:20 51°14.12 2°55.42 1.8 248 10.6 102410 69
2003-05-15 07:29:26 51°14.13 2°55.41 1.8 248 10.6 102410 69
2003-05-15 07:29:30 51°14.14 2°55.4 1.8 248 10.7 102410 70
2003-05-15 07:29:36 51°14.15 2°55.39 1.8 248 10.7 102410 70
2003-05-15 07:29:40 51°14.16 2°55.38 1.8 248 10.7 102410 70
2003-05-15 07:29:46 51°14.17 2°55.36 1.8 248 10.7 102410 70
2003-05-15 07:29:50 51°14.18 2°55.35 1.8 248 10.7 102410 69
2003-05-15 07:29:56 51°14.19 2°55.34 1.8 248 10.7 102410 69
2003-05-15 07:30:00 51°14.2 2°55.33 1.8 248 10.7 102410 69
2003-05-15 07:30:06 51°14.21 2°55.31 1.8 248 10.7 102410 69
2003-05-15 07:30:10 51°14.22 2°55.3 1.8 248 10.7 102410 69
2003-05-15 07:30:16 51°14.23 2°55.29 1.8 248 10.7 102410 69
2003-05-15 07:30:20 51°14.24 2°55.28 1.8 248 10.7 102410 69
2003-05-15 07:30:26 51°14.25 2°55.26 1.8 248 10.7 102410 69
2003-05-15 07:30:30 51°14.26 2°55.25 1.8 248 10.7 102410 69
2003-05-15 07:30:36 51°14.27 2°55.23 1.8 248 10.7 102410 69
2003-05-15 07:30:40 51°14.28 2°55.22 1.8 248 10.7 102410 68
2003-05-15 07:30:46 51°14.29 2°55.2 1.8 248 10.7 102410 68
2003-05-15 07:30:50 51°14.29 2°55.19 1.8 248 10.6 102410 68
2003-05-15 07:30:56 51°14.3 2°55.17 1.8 248 10.6 102410 68
2003-05-15 07:31:00 51°14.31 2°55.16 1.8 248 10.6 102410 68
2003-05-15 07:31:06 51°14.32 2°55.14 1.8 248 10.6 102410 68
2003-05-15 07:31:10 51°14.33 2°55.13 1.8 248 10.6 102410 68
2003-05-15 07:31:16 51°14.34 2°55.11 1.8 248 10.6 102410 68
2003-05-15 07:31:20 51°14.34 2°55.1 1.8 248 10.7 102410 68
2003-05-15 07:31:26 51°14.35 2°55.07 1.8 248 10.7 102410 68
2003-05-15 07:31:32 51°14.36 2°55.05 1.8 248 10.7 102410 68
2003-05-15 07:31:36 51°14.37 2°55.04 1.8 248 10.7 102410 68
2003-05-15 07:31:40 51°14.37 2°55.02 1.8 248 10.7 102410 68
2003-05-15 07:31:46 51°14.38 2°55 1.8 248 10.7 102410 68
2003-05-15 07:31:50 51°14.39 2°54.98 1.8 248 10.7 102410 68
2003-05-15 07:31:56 51°14.39 2°54.96 1.8 248 10.7 102410 68
2003-05-15 07:32:00 51°14.4 2°54.94 1.8 248 10.7 102410 68
2003-05-15 07:32:06 51°14.41 2°54.92 1.8 248 10.7 102410 68
2003-05-15 07:32:10 51°14.41 2°54.9 1.8 248 10.7 102410 68
2003-05-15 07:32:16 51°14.42 2°54.87 1.8 248 10.7 102410 68
2003-05-15 07:32:20 51°14.43 2°54.86 1.8 248 10.7 102400 69
2003-05-15 07:32:26 51°14.44 2°54.83 1.8 248 10.7 102400 69
2003-05-15 07:32:30 51°14.44 2°54.81 1.8 248 10.7 102400 69
2003-05-15 07:32:36 51°14.45 2°54.78 1.8 248 10.7 102400 69
2003-05-15 07:32:40 51°14.46 2°54.76 1.8 248 10.7 102400 69
2003-05-15 07:32:46 51°14.47 2°54.73 1.8 248 10.7 102400 69
2003-05-15 07:32:50 51°14.47 2°54.71 1.8 248 10.7 102400 69
2003-05-15 07:32:56 51°14.48 2°54.68 1.8 248 10.7 102400 69
2003-05-15 07:33:00 51°14.49 2°54.66 1.8 248 10.8 102410 69
2003-05-15 07:33:06 51°14.5 2°54.63 1.8 248 10.8 102410 69
2003-05-15 07:33:12 51°14.51 2°54.6 1.8 248 10.8 102410 69
2003-05-15 07:33:16 51°14.51 2°54.58 1.8 248 10.8 102410 69
2003-05-15 07:33:20 51°14.52 2°54.56 1.8 248 10.8 102410 69
2003-05-15 07:33:26 51°14.53 2°54.53 1.8 248 10.8 102410 69
2003-05-15 07:33:30 51°14.54 2°54.51 1.8 248 10.8 102400 69
2003-05-15 07:33:36 51°14.55 2°54.48 1.8 248 10.8 102400 69
2003-05-15 07:33:40 51°14.55 2°54.46 1.8 248 10.8 102400 69
2003-05-15 07:33:46 51°14.56 2°54.43 1.8 248 10.8 102400 69
2003-05-15 07:33:50 51°14.57 2°54.42 1.8 248 10.8 102410 69
2003-05-15 07:33:56 51°14.58 2°54.39 1.8 248 10.8 102410 69
2003-05-15 07:34:00 51°14.59 2°54.37 1.8 248 10.8 102400 69
2003-05-15 07:34:04 51°14.6 2°54.35 1.8 248 10.8 102400 69
2003-05-15 07:34:10 51°14.61 2°54.32 1.8 248 10.8 102410 69
2003-05-15 07:34:16 51°14.62 2°54.29 1.8 248 10.8 102410 69
2003-05-15 07:34:20 51°14.63 2°54.27 1.8 248 10.8 102400 70
2003-05-15 07:34:26 51°14.64 2°54.24 1.8 248 10.8 102400 70
2003-05-15 07:34:30 51°14.64 2°54.23 1.8 248 10.8 102410 70
2003-05-15 07:34:36 51°14.66 2°54.2 1.8 248 10.8 102410 70
2003-05-15 07:34:40 51°14.66 2°54.18 1.8 248 10.7 102400 70
2003-05-15 07:34:46 51°14.67 2°54.15 1.8 248 10.7 102400 70
2003-05-15 07:34:50 51°14.68 2°54.13 1.8 248 10.7 102410 70
2003-05-15 07:34:56 51°14.69 2°54.1 1.8 248 10.7 102410 70
2003-05-15 07:35:00 51°14.7 2°54.08 1.8 248 10.7 102410 70
2003-05-15 07:35:06 51°14.71 2°54.06 1.8 248 10.7 102410 70
2003-05-15 07:35:10 51°14.72 2°54.04 1.8 248 10.7 102410 70
2003-05-15 07:35:16 51°14.73 2°54.01 1.8 248 10.7 102410 70
2003-05-15 07:35:20 51°14.73 2°53.99 1.8 248 10.7 102410 70
2003-05-15 07:35:26 51°14.75 2°53.96 1.8 248 10.7 102410 70
2003-05-15 07:35:32 51°14.76 2°53.93 1.8 248 10.7 102400 70
2003-05-15 07:35:36 51°14.76 2°53.92 1.8 248 10.7 102400 70
2003-05-15 07:35:40 51°14.77 2°53.9 1.8 248 10.7 102400 70
2003-05-15 07:35:46 51°14.78 2°53.87 1.8 248 10.7 102400 70
2003-05-15 07:35:50 51°14.79 2°53.85 1.8 248 10.7 102410 70
2003-05-15 07:35:56 51°14.8 2°53.82 1.8 248 10.7 102410 70
2003-05-15 07:36:00 51°14.81 2°53.8 1.8 248 10.7 102410 70
2003-05-15 07:36:06 51°14.82 2°53.78 1.8 248 10.7 102410 70
2003-05-15 07:36:12 51°14.83 2°53.75 1.8 248 10.7 102410 70
2003-05-15 07:36:16 51°14.83 2°53.73 1.8 248 10.7 102410 70
2003-05-15 07:36:20 51°14.84 2°53.71 1.8 248 10.7 102400 71
2003-05-15 07:36:26 51°14.85 2°53.68 1.8 248 10.7 102400 71
2003-05-15 07:36:30 51°14.86 2°53.66 1.8 248 10.7 102410 71
2003-05-15 07:36:36 51°14.87 2°53.63 1.8 248 10.7 102410 71
2003-05-15 07:36:40 51°14.88 2°53.62 1.8 248 10.7 102410 71
2003-05-15 07:36:46 51°14.89 2°53.59 1.8 248 10.7 102410 71
2003-05-15 07:36:50 51°14.89 2°53.57 1.8 248 10.7 102410 71
2003-05-15 07:36:56 51°14.91 2°53.54 1.8 248 10.7 102410 71
2003-05-15 07:37:00 51°14.91 2°53.52 1.8 248 10.7 102400 71
2003-05-15 07:37:06 51°14.92 2°53.49 1.8 248 10.7 102400 71
2003-05-15 07:37:12 51°14.93 2°53.46 1.8 248 10.7 102410 71
2003-05-15 07:37:16 51°14.94 2°53.44 1.8 248 10.7 102410 71
2003-05-15 07:37:20 51°14.95 2°53.42 1.8 248 10.7 102410 71
2003-05-15 07:37:26 51°14.96 2°53.39 1.8 248 10.7 102410 71
2003-05-15 07:37:30 51°14.96 2°53.37 1.8 248 10.7 102410 71
2003-05-15 07:37:36 51°14.97 2°53.34 1.8 248 10.7 102410 71
2003-05-15 07:37:40 51°14.98 2°53.32 1.8 248 10.7 102410 71
2003-05-15 07:37:46 51°14.99 2°53.29 1.8 248 10.7 102410 71
2003-05-15 07:37:50 51°14.99 2°53.27 1.8 248 10.9 102400 71
2003-05-15 07:37:56 51°15 2°53.24 1.8 248 10.9 102400 71
2003-05-15 07:38:00 51°15.01 2°53.22 1.8 248 10.7 102410 72
2003-05-15 07:38:06 51°15.02 2°53.19 1.8 248 10.7 102410 72
2003-05-15 07:38:10 51°15.02 2°53.17 1.8 248 10.7 102400 72
2003-05-15 07:38:16 51°15.03 2°53.14 1.8 248 10.7 102400 72
2003-05-15 07:38:20 51°15.04 2°53.12 1.8 248 10.7 102390 72
2003-05-15 07:38:26 51°15.05 2°53.09 1.8 248 10.7 102390 72
2003-05-15 07:38:30 51°15.05 2°53.07 1.8 248 10.7 102410 72
2003-05-15 07:38:36 51°15.06 2°53.04 1.8 248 10.7 102410 72
2003-05-15 07:38:40 51°15.07 2°53.02 1.8 248 10.7 102400 72
2003-05-15 07:38:46 51°15.08 2°52.99 1.8 248 10.7 102400 72
2003-05-15 07:38:50 51°15.08 2°52.97 1.8 248 10.7 102390 72
2003-05-15 07:38:56 51°15.09 2°52.93 1.8 248 10.7 102390 72
2003-05-15 07:39:00 51°15.1 2°52.91 1.8 248 10.7 102400 72
2003-05-15 07:39:06 51°15.11 2°52.88 1.8 248 10.7 102400 72
2003-05-15 07:39:10 51°15.11 2°52.86 1.8 248 10.7 102400 72
2003-05-15 07:39:16 51°15.12 2°52.83 1.8 248 10.7 102400 72
2003-05-15 07:39:20 51°15.13 2°52.81 1.8 248 10.7 102410 72
2003-05-15 07:39:26 51°15.14 2°52.78 1.8 248 10.7 102410 72
2003-05-15 07:39:30 51°15.14 2°52.76 1.8 248 10.7 102410 72
2003-05-15 07:39:36 51°15.15 2°52.73 1.8 248 10.7 102410 72
2003-05-15 07:39:40 51°15.16 2°52.71 1.8 248 10.7 102410 72
2003-05-15 07:39:46 51°15.17 2°52.67 1.8 248 10.7 102410 72
2003-05-15 07:39:50 51°15.17 2°52.65 1.8 248 10.7 102400 73
2003-05-15 07:39:56 51°15.18 2°52.62 1.8 248 10.7 102400 73
2003-05-15 07:40:00 51°15.19 2°52.6 1.8 248 10.7 102410 72
2003-05-15 07:40:06 51°15.2 2°52.57 1.8 248 10.7 102410 72
2003-05-15 07:40:10 51°15.2 2°52.55 1.8 248 10.7 102400 72
2003-05-15 07:40:16 51°15.21 2°52.52 1.8 248 10.7 102400 72
2003-05-15 07:40:20 51°15.22 2°52.5 1.8 248 10.7 102400 72
2003-05-15 07:40:26 51°15.23 2°52.46 1.8 248 10.7 102400 72
2003-05-15 07:40:30 51°15.23 2°52.44 1.8 248 10.7 102410 72
2003-05-15 07:40:36 51°15.24 2°52.41 1.8 248 10.7 102410 72
2003-05-15 07:40:40 51°15.25 2°52.39 1.8 248 10.7 102410 72
2003-05-15 07:40:46 51°15.26 2°52.36 1.8 248 10.7 102410 72
2003-05-15 07:40:50 51°15.26 2°52.34 1.8 248 10.7 102400 72
2003-05-15 07:40:56 51°15.27 2°52.3 1.8 248 10.7 102400 72
2003-05-15 07:41:00 51°15.28 2°52.28 1.8 248 10.7 102410 72
2003-05-15 07:41:06 51°15.29 2°52.25 1.8 248 10.7 102410 72
2003-05-15 07:41:12 51°15.29 2°52.22 1.8 248 10.7 102400 72
2003-05-15 07:41:16 51°15.3 2°52.2 1.8 248 10.7 102400 72
2003-05-15 07:41:20 51°15.31 2°52.18 1.8 248 10.7 102410 72
2003-05-15 07:41:26 51°15.31 2°52.15 1.8 248 10.7 102410 72
2003-05-15 07:41:30 51°15.32 2°52.12 1.8 248 10.7 102400 72
2003-05-15 07:41:36 51°15.32 2°52.09 1.8 248 10.7 102400 72
2003-05-15 07:41:40 51°15.33 2°52.07 1.8 248 10.7 102400 72
2003-05-15 07:41:46 51°15.33 2°52.03 1.8 248 10.7 102400 72
2003-05-15 07:41:50 51°15.33 2°52.01 1.8 248 10.7 102410 72
2003-05-15 07:41:56 51°15.33 2°51.97 1.8 248 10.7 102410 72
2003-05-15 07:42:00 51°15.33 2°51.95 1.8 248 10.7 102400 72
2003-05-15 07:42:06 51°15.34 2°51.92 1.8 248 10.7 102400 72
2003-05-15 07:42:10 51°15.34 2°51.89 1.8 248 10.7 102400 72
2003-05-15 07:42:16 51°15.34 2°51.86 1.8 248 10.7 102400 72
2003-05-15 07:42:20 51°15.34 2°51.83 1.8 248 10.6 102410 72
2003-05-15 07:42:26 51°15.34 2°51.8 1.8 248 10.6 102410 72
2003-05-15 07:42:30 51°15.34 2°51.77 1.8 248 10.7 102410 72
2003-05-15 07:42:36 51°15.34 2°51.74 1.8 248 10.7 102410 72
2003-05-15 07:42:40 51°15.33 2°51.71 1.8 248 10.6 102400 72
2003-05-15 07:42:46 51°15.33 2°51.68 1.8 248 10.6 102400 72
2003-05-15 07:42:50 51°15.33 2°51.65 1.8 248 10.6 102400 72
2003-05-15 07:42:56 51°15.32 2°51.62 1.8 248 10.6 102400 72
2003-05-15 07:43:00 51°15.32 2°51.6 1.8 248 10.6 102410 72
2003-05-15 07:43:06 51°15.31 2°51.56 1.8 248 10.6 102410 72
2003-05-15 07:43:12 51°15.3 2°51.53 1.8 248 10.6 102400 72
2003-05-15 07:43:16 51°15.3 2°51.51 1.8 248 10.6 102400 72
2003-05-15 07:43:20 51°15.29 2°51.49 1.8 248 10.6 102400 72
2003-05-15 07:43:26 51°15.28 2°51.45 1.8 248 10.6 102400 72
2003-05-15 07:43:30 51°15.27 2°51.43 1.8 248 10.6 102400 72
2003-05-15 07:43:36 51°15.26 2°51.4 1.8 248 10.6 102400 72
2003-05-15 07:43:40 51°15.25 2°51.38 1.8 248 10.6 102400 72
2003-05-15 07:43:46 51°15.24 2°51.35 1.8 248 10.6 102400 72
2003-05-15 07:43:50 51°15.23 2°51.33 1.8 248 10.6 102400 72
2003-05-15 07:43:56 51°15.22 2°51.3 1.8 248 10.6 102400 72
2003-05-15 07:44:00 51°15.21 2°51.28 1.8 248 10.6 102400 72
2003-05-15 07:44:06 51°15.2 2°51.25 1.8 248 10.6 102400 72
2003-05-15 07:44:10 51°15.19 2°51.23 1.8 248 10.6 102400 72
2003-05-15 07:44:16 51°15.17 2°51.21 1.8 248 10.6 102400 72
2003-05-15 07:44:20 51°15.17 2°51.19 1.8 248 10.7 102400 72
2003-05-15 07:44:26 51°15.15 2°51.16 1.8 248 10.7 102400 72
2003-05-15 07:44:30 51°15.14 2°51.14 1.8 248 10.6 102400 73
2003-05-15 07:44:36 51°15.13 2°51.11 1.8 248 10.6 102400 73
2003-05-15 07:44:40 51°15.12 2°51.09 1.8 248 10.7 102400 73
2003-05-15 07:44:46 51°15.11 2°51.06 1.8 248 10.7 102400 73
2003-05-15 07:44:50 51°15.1 2°51.04 1.8 248 10.7 102400 73
2003-05-15 07:44:56 51°15.09 2°51.01 1.8 248 10.7 102400 73
2003-05-15 07:45:00 51°15.08 2°50.99 1.8 248 10.7 102390 74
2003-05-15 07:45:06 51°15.06 2°50.96 1.8 248 10.7 102390 74
2003-05-15 07:45:12 51°15.05 2°50.93 1.8 248 10.7 102400 74
2003-05-15 07:45:16 51°15.04 2°50.91 1.8 248 10.7 102400 74
2003-05-15 07:45:20 51°15.03 2°50.89 1.8 248 10.7 102400 74
2003-05-15 07:45:26 51°15.02 2°50.86 1.8 248 10.7 102400 74
2003-05-15 07:45:32 51°15 2°50.83 1.8 248 10.7 102390 74
2003-05-15 07:45:36 51°14.99 2°50.81 1.8 248 10.7 102390 74
2003-05-15 07:45:40 51°14.99 2°50.79 1.8 248 10.7 102390 74
2003-05-15 07:45:46 51°14.97 2°50.76 1.8 248 10.7 102390 74
2003-05-15 07:45:52 51°14.96 2°50.73 1.8 248 10.7 102390 74
2003-05-15 07:45:56 51°14.95 2°50.71 1.8 248 10.7 102390 74
2003-05-15 07:46:02 51°14.93 2°50.68 -999 -999 -999 -999 -999
2003-05-15 07:46:06 51°14.92 2°50.67 -999 -999 -999 -999 -999
2003-05-15 07:46:12 51°14.91 2°50.64 -999 -999 -999 -999 -999
2003-05-15 07:46:16 51°14.9 2°50.62 -999 -999 -999 -999 -999
2003-05-15 07:46:20 51°14.89 2°50.6 -999 -999 -999 -999 -999
2003-05-15 07:46:26 51°14.87 2°50.57 -999 -999 -999 -999 -999
2003-05-15 07:46:32 51°14.86 2°50.54 -999 -999 -999 -999 -999
2003-05-15 07:46:36 51°14.85 2°50.52 -999 -999 -999 -999 -999
2003-05-15 07:46:42 51°14.83 2°50.49 -999 -999 -999 -999 -999
2003-05-15 07:46:46 51°14.82 2°50.48 -999 -999 -999 -999 -999
2003-05-15 07:46:52 51°14.81 2°50.45 -999 -999 -999 -999 -999
2003-05-15 07:46:56 51°14.8 2°50.43 -999 -999 -999 -999 -999
2003-05-15 07:47:00 51°14.79 2°50.41 -999 -999 -999 -999 -999
2003-05-15 07:47:06 51°14.77 2°50.38 -999 -999 -999 -999 -999
2003-05-15 07:47:12 51°14.76 2°50.35 -999 -999 -999 -999 -999
2003-05-15 07:47:16 51°14.75 2°50.34 -999 -999 -999 -999 -999
2003-05-15 07:47:20 51°14.74 2°50.32 -999 -999 -999 -999 -999
2003-05-15 07:47:26 51°14.73 2°50.29 -999 -999 -999 -999 -999
2003-05-15 07:47:32 51°14.71 2°50.26 -999 -999 -999 -999 -999
2003-05-15 07:47:36 51°14.7 2°50.24 -999 -999 -999 -999 -999
2003-05-15 07:47:40 51°14.69 2°50.22 -999 -999 -999 -999 -999
2003-05-15 07:47:46 51°14.68 2°50.2 -999 -999 -999 -999 -999
2003-05-15 07:47:52 51°14.66 2°50.17 -999 -999 -999 -999 -999
2003-05-15 07:47:56 51°14.65 2°50.15 -999 -999 -999 -999 -999
2003-05-15 07:48:00 51°14.64 2°50.13 -999 -999 -999 -999 -999
2003-05-15 07:48:06 51°14.63 2°50.1 -999 -999 -999 -999 -999
2003-05-15 07:48:12 51°14.61 2°50.07 -999 -999 -999 -999 -999
2003-05-15 07:48:16 51°14.6 2°50.06 -999 -999 -999 -999 -999
2003-05-15 07:48:22 51°14.59 2°50.03 -999 -999 -999 -999 -999
2003-05-15 07:48:26 51°14.58 2°50.01 -999 -999 -999 -999 -999
2003-05-15 07:48:32 51°14.56 2°49.98 -999 -999 -999 -999 -999
2003-05-15 07:48:36 51°14.56 2°49.96 -999 -999 -999 -999 -999
2003-05-15 07:48:40 51°14.55 2°49.94 -999 -999 -999 -999 -999
2003-05-15 07:48:46 51°14.53 2°49.91 -999 -999 -999 -999 -999
2003-05-15 07:48:52 51°14.52 2°49.89 -999 -999 -999 -999 -999
2003-05-15 07:48:56 51°14.51 2°49.87 -999 -999 -999 -999 -999
2003-05-15 07:49:00 51°14.5 2°49.85 -999 -999 -999 -999 -999
2003-05-15 07:49:06 51°14.48 2°49.82 -999 -999 -999 -999 -999
2003-05-15 07:49:12 51°14.47 2°49.79 -999 -999 -999 -999 -999
2003-05-15 07:49:16 51°14.46 2°49.78 -999 -999 -999 -999 -999
2003-05-15 07:49:22 51°14.45 2°49.75 -999 -999 -999 -999 -999
2003-05-15 07:49:26 51°14.44 2°49.74 -999 -999 -999 -999 -999
2003-05-15 07:49:32 51°14.43 2°49.71 -999 -999 -999 -999 -999
2003-05-15 07:49:36 51°14.42 2°49.7 -999 -999 -999 -999 -999
2003-05-15 07:49:40 51°14.41 2°49.68 -999 -999 -999 -999 -999
2003-05-15 07:49:46 51°14.4 2°49.66 -999 -999 -999 -999 -999
2003-05-15 07:49:52 51°14.39 2°49.65 -999 -999 -999 -999 -999
2003-05-15 07:49:56 51°14.39 2°49.63 -999 -999 -999 -999 -999
2003-05-15 07:50:00 51°14.38 2°49.62 -999 -999 -999 -999 -999
2003-05-15 07:50:06 51°14.37 2°49.6 -999 -999 -999 -999 -999
2003-05-15 07:50:12 51°14.37 2°49.59 -999 -999 -999 -999 -999
2003-05-15 07:50:16 51°14.36 2°49.58 -999 -999 -999 -999 -999
2003-05-15 07:50:20 51°14.36 2°49.56 -999 -999 -999 -999 -999
2003-05-15 07:50:26 51°14.35 2°49.55 -999 -999 -999 -999 -999
2003-05-15 07:50:32 51°14.34 2°49.53 -999 -999 -999 -999 -999
2003-05-15 07:50:36 51°14.34 2°49.52 -999 -999 -999 -999 -999
2003-05-15 07:50:40 51°14.33 2°49.51 -999 -999 -999 -999 -999
2003-05-15 07:50:46 51°14.33 2°49.5 -999 -999 -999 -999 -999
2003-05-15 07:50:52 51°14.32 2°49.48 -999 -999 -999 -999 -999
2003-05-15 07:50:56 51°14.32 2°49.48 -999 -999 -999 -999 -999
2003-05-15 07:51:00 51°14.32 2°49.47 -999 -999 -999 -999 -999
2003-05-15 07:51:06 51°14.32 2°49.45 -999 -999 -999 -999 -999
2003-05-15 07:51:12 51°14.31 2°49.44 -999 -999 -999 -999 -999
2003-05-15 07:51:16 51°14.31 2°49.43 -999 -999 -999 -999 -999
2003-05-15 07:51:20 51°14.31 2°49.42 -999 -999 -999 -999 -999
2003-05-15 07:51:26 51°14.31 2°49.41 -999 -999 -999 -999 -999
2003-05-15 07:51:32 51°14.3 2°49.4 -999 -999 -999 -999 -999
2003-05-15 07:51:36 51°14.3 2°49.39 -999 -999 -999 -999 -999
2003-05-15 07:51:42 51°14.3 2°49.38 -999 -999 -999 -999 -999
2003-05-15 07:51:46 51°14.3 2°49.37 -999 -999 -999 -999 -999
2003-05-15 07:51:52 51°14.3 2°49.36 -999 -999 -999 -999 -999
2003-05-15 07:51:56 51°14.3 2°49.36 -999 -999 -999 -999 -999
2003-05-15 07:52:00 51°14.29 2°49.35 -999 -999 -999 -999 -999
2003-05-15 07:52:06 51°14.29 2°49.34 -999 -999 -999 -999 -999
2003-05-15 07:52:12 51°14.29 2°49.34 -999 -999 -999 -999 -999
2003-05-15 07:52:16 51°14.29 2°49.33 -999 -999 -999 -999 -999
2003-05-15 07:52:20 51°14.29 2°49.33 -999 -999 -999 -999 -999
2003-05-15 07:52:26 51°14.29 2°49.32 -999 -999 -999 -999 -999
2003-05-15 07:52:32 51°14.29 2°49.31 -999 -999 -999 -999 -999
2003-05-15 07:52:36 51°14.29 2°49.31 -999 -999 -999 -999 -999
2003-05-15 07:52:40 51°14.29 2°49.31 -999 -999 -999 -999 -999
2003-05-15 07:52:46 51°14.29 2°49.3 -999 -999 -999 -999 -999
2003-05-15 07:52:52 51°14.29 2°49.29 -999 -999 -999 -999 -999
2003-05-15 07:52:56 51°14.29 2°49.29 -999 -999 -999 -999 -999
2003-05-15 07:53:00 51°14.29 2°49.28 -999 -999 -999 -999 -999
2003-05-15 07:53:06 51°14.29 2°49.28 -999 -999 -999 -999 -999
2003-05-15 07:53:12 51°14.29 2°49.27 -999 -999 -999 -999 -999
2003-05-15 07:53:16 51°14.29 2°49.26 -999 -999 -999 -999 -999
2003-05-15 07:53:20 51°14.29 2°49.26 -999 -999 -999 -999 -999
2003-05-15 07:53:26 51°14.29 2°49.25 -999 -999 -999 -999 -999
2003-05-15 07:53:32 51°14.29 2°49.24 -999 -999 -999 -999 -999
2003-05-15 07:53:36 51°14.29 2°49.24 -999 -999 -999 -999 -999
2003-05-15 07:53:40 51°14.29 2°49.24 -999 -999 -999 -999 -999
2003-05-15 07:53:46 51°14.29 2°49.23 -999 -999 -999 -999 -999
2003-05-15 07:53:52 51°14.29 2°49.22 -999 -999 -999 -999 -999
2003-05-15 07:53:56 51°14.29 2°49.22 -999 -999 -999 -999 -999
2003-05-15 07:54:00 51°14.29 2°49.21 -999 -999 -999 -999 -999
2003-05-15 07:54:06 51°14.3 2°49.21 -999 -999 -999 -999 -999
2003-05-15 07:54:12 51°14.3 2°49.2 -999 -999 -999 -999 -999
2003-05-15 07:54:16 51°14.3 2°49.2 -999 -999 -999 -999 -999
2003-05-15 07:54:20 51°14.3 2°49.2 -999 -999 -999 -999 -999
2003-05-15 07:54:26 51°14.31 2°49.19 -999 -999 -999 -999 -999
2003-05-15 07:54:32 51°14.31 2°49.19 -999 -999 -999 -999 -999
2003-05-15 07:54:36 51°14.31 2°49.19 -999 -999 -999 -999 -999
2003-05-15 07:54:42 51°14.31 2°49.18 -999 -999 -999 -999 -999
2003-05-15 07:54:46 51°14.32 2°49.18 -999 -999 -999 -999 -999
2003-05-15 07:54:52 51°14.32 2°49.18 -999 -999 -999 -999 -999
2003-05-15 07:54:56 51°14.32 2°49.18 -999 -999 -999 -999 -999
2003-05-15 07:55:00 51°14.32 2°49.18 -999 -999 -999 -999 -999
2003-05-15 07:55:06 51°14.33 2°49.18 -999 -999 -999 -999 -999
2003-05-15 07:55:12 51°14.33 2°49.18 -999 -999 -999 -999 -999
2003-05-15 07:55:16 51°14.33 2°49.18 -999 -999 -999 -999 -999
2003-05-15 07:55:20 51°14.34 2°49.18 -999 -999 -999 -999 -999
2003-05-15 07:55:26 51°14.34 2°49.19 -999 -999 -999 -999 -999
2003-05-15 07:55:32 51°14.34 2°49.19 -999 -999 -999 -999 -999
2003-05-15 07:55:36 51°14.35 2°49.19 -999 -999 -999 -999 -999
2003-05-15 07:55:40 51°14.35 2°49.19 -999 -999 -999 -999 -999
2003-05-15 07:55:46 51°14.35 2°49.2 -999 -999 -999 -999 -999
2003-05-15 07:55:52 51°14.36 2°49.2 -999 -999 -999 -999 -999
2003-05-15 07:55:56 51°14.36 2°49.2 -999 -999 -999 -999 -999
2003-05-15 07:56:00 51°14.36 2°49.21 -999 -999 -999 -999 -999
2003-05-15 07:56:06 51°14.36 2°49.21 -999 -999 -999 -999 -999
2003-05-15 07:56:12 51°14.37 2°49.22 -999 -999 -999 -999 -999
2003-05-15 07:56:16 51°14.37 2°49.22 -999 -999 -999 -999 -999
2003-05-15 07:56:22 51°14.37 2°49.23 -999 -999 -999 -999 -999
2003-05-15 07:56:26 51°14.37 2°49.23 -999 -999 -999 -999 -999
2003-05-15 07:56:32 51°14.38 2°49.24 -999 -999 -999 -999 -999
2003-05-15 07:56:36 51°14.38 2°49.24 -999 -999 -999 -999 -999
2003-05-15 07:56:40 51°14.38 2°49.25 -999 -999 -999 -999 -999
2003-05-15 07:56:46 51°14.38 2°49.25 -999 -999 -999 -999 -999
2003-05-15 07:56:52 51°14.39 2°49.26 -999 -999 -999 -999 -999
2003-05-15 07:56:56 51°14.39 2°49.26 -999 -999 -999 -999 -999
2003-05-15 07:57:00 51°14.39 2°49.27 -999 -999 -999 -999 -999
2003-05-15 07:57:06 51°14.39 2°49.28 -999 -999 -999 -999 -999
2003-05-15 07:57:12 51°14.4 2°49.28 -999 -999 -999 -999 -999
2003-05-15 07:57:16 51°14.4 2°49.29 -999 -999 -999 -999 -999
2003-05-15 07:57:20 51°14.4 2°49.29 -999 -999 -999 -999 -999
2003-05-15 07:57:26 51°14.4 2°49.3 -999 -999 -999 -999 -999
2003-05-15 07:57:32 51°14.41 2°49.31 -999 -999 -999 -999 -999
2003-05-15 07:57:36 51°14.41 2°49.31 -999 -999 -999 -999 -999
2003-05-15 07:57:40 51°14.41 2°49.32 -999 -999 -999 -999 -999
2003-05-15 07:57:46 51°14.41 2°49.32 -999 -999 -999 -999 -999
2003-05-15 07:57:52 51°14.41 2°49.33 -999 -999 -999 -999 -999
2003-05-15 07:57:56 51°14.42 2°49.34 -999 -999 -999 -999 -999
2003-05-15 07:58:00 51°14.42 2°49.34 -999 -999 -999 -999 -999
2003-05-15 07:58:06 51°14.42 2°49.35 -999 -999 -999 -999 -999
2003-05-15 07:58:12 51°14.42 2°49.35 -999 -999 -999 -999 -999
2003-05-15 07:58:16 51°14.42 2°49.36 -999 -999 -999 -999 -999
2003-05-15 07:58:20 51°14.42 2°49.36 -999 -999 -999 -999 -999
2003-05-15 07:58:26 51°14.43 2°49.37 -999 -999 -999 -999 -999
2003-05-15 07:58:32 51°14.43 2°49.38 -999 -999 -999 -999 -999
2003-05-15 07:58:36 51°14.43 2°49.38 -999 -999 -999 -999 -999
2003-05-15 07:58:40 51°14.43 2°49.39 -999 -999 -999 -999 -999
2003-05-15 07:58:46 51°14.43 2°49.39 -999 -999 -999 -999 -999
2003-05-15 07:58:52 51°14.43 2°49.4 -999 -999 -999 -999 -999
2003-05-15 07:58:56 51°14.43 2°49.4 -999 -999 -999 -999 -999
2003-05-15 07:59:00 51°14.43 2°49.41 -999 -999 -999 -999 -999
2003-05-15 07:59:06 51°14.43 2°49.41 -999 -999 -999 -999 -999
2003-05-15 07:59:12 51°14.43 2°49.42 -999 -999 -999 -999 -999
2003-05-15 07:59:16 51°14.43 2°49.42 -999 -999 -999 -999 -999
2003-05-15 07:59:22 51°14.43 2°49.43 -999 -999 -999 -999 -999
2003-05-15 07:59:26 51°14.43 2°49.43 -999 -999 -999 -999 -999
2003-05-15 07:59:32 51°14.43 2°49.44 -999 -999 -999 -999 -999
2003-05-15 07:59:36 51°14.43 2°49.44 -999 -999 -999 -999 -999
2003-05-15 07:59:42 51°14.43 2°49.45 -999 -999 -999 -999 -999
2003-05-15 07:59:46 51°14.43 2°49.45 -999 -999 -999 -999 -999
2003-05-15 07:59:52 51°14.44 2°49.45 -999 -999 -999 -999 -999
2003-05-15 07:59:56 51°14.44 2°49.46 -999 -999 -999 -999 -999
2003-05-15 08:00:00 51°14.44 2°49.46 -999 -999 -999 -999 -999
2003-05-15 08:00:06 51°14.44 2°49.46 -999 -999 -999 -999 -999
2003-05-15 08:00:12 51°14.44 2°49.47 -999 -999 -999 -999 -999
2003-05-15 08:00:16 51°14.44 2°49.47 -999 -999 -999 -999 -999
2003-05-15 08:00:22 51°14.44 2°49.47 -999 -999 -999 -999 -999
2003-05-15 08:00:26 51°14.44 2°49.48 -999 -999 -999 -999 -999
2003-05-15 08:00:32 51°14.45 2°49.48 -999 -999 -999 -999 -999
2003-05-15 08:00:36 51°14.45 2°49.48 -999 -999 -999 -999 -999
2003-05-15 08:00:40 51°14.45 2°49.48 -999 -999 -999 -999 -999
2003-05-15 08:00:46 51°14.45 2°49.49 -999 -999 -999 -999 -999
2003-05-15 08:00:52 51°14.45 2°49.49 -999 -999 -999 -999 -999
2003-05-15 08:00:56 51°14.45 2°49.49 -999 -999 -999 -999 -999
2003-05-15 08:01:00 51°14.46 2°49.5 -999 -999 -999 -999 -999
2003-05-15 08:01:06 51°14.46 2°49.5 -999 -999 -999 -999 -999
2003-05-15 08:01:12 51°14.46 2°49.51 -999 -999 -999 -999 -999
2003-05-15 08:01:16 51°14.46 2°49.51 -999 -999 -999 -999 -999
2003-05-15 08:01:20 51°14.46 2°49.51 -999 -999 -999 -999 -999
2003-05-15 08:01:26 51°14.47 2°49.52 -999 -999 -999 -999 -999
2003-05-15 08:01:32 51°14.47 2°49.52 -999 -999 -999 -999 -999
2003-05-15 08:01:36 51°14.47 2°49.53 -999 -999 -999 -999 -999
2003-05-15 08:01:42 51°14.47 2°49.53 -999 -999 -999 -999 -999
2003-05-15 08:01:46 51°14.48 2°49.53 -999 -999 -999 -999 -999
2003-05-15 08:01:52 51°14.48 2°49.54 -999 -999 -999 -999 -999
2003-05-15 08:01:56 51°14.48 2°49.54 -999 -999 -999 -999 -999
2003-05-15 08:02:00 51°14.48 2°49.55 -999 -999 -999 -999 -999
2003-05-15 08:02:06 51°14.48 2°49.55 -999 -999 -999 -999 -999
2003-05-15 08:02:12 51°14.49 2°49.56 -999 -999 -999 -999 -999
2003-05-15 08:02:16 51°14.49 2°49.56 -999 -999 -999 -999 -999
2003-05-15 08:02:20 51°14.49 2°49.57 -999 -999 -999 -999 -999
2003-05-15 08:02:26 51°14.49 2°49.57 -999 -999 -999 -999 -999
2003-05-15 08:02:32 51°14.49 2°49.58 -999 -999 -999 -999 -999
2003-05-15 08:02:36 51°14.5 2°49.58 -999 -999 -999 -999 -999
2003-05-15 08:02:42 51°14.5 2°49.59 -999 -999 -999 -999 -999
2003-05-15 08:02:46 51°14.5 2°49.59 -999 -999 -999 -999 -999
2003-05-15 08:02:52 51°14.5 2°49.6 -999 -999 -999 -999 -999
2003-05-15 08:02:56 51°14.5 2°49.6 -999 -999 -999 -999 -999
2003-05-15 08:03:00 51°14.5 2°49.61 -999 -999 -999 -999 -999
2003-05-15 08:03:06 51°14.51 2°49.61 -999 -999 -999 -999 -999
2003-05-15 08:03:12 51°14.51 2°49.62 -999 -999 -999 -999 -999
2003-05-15 08:03:16 51°14.51 2°49.63 -999 -999 -999 -999 -999
2003-05-15 08:03:20 51°14.51 2°49.63 -999 -999 -999 -999 -999
2003-05-15 08:03:26 51°14.51 2°49.64 -999 -999 -999 -999 -999
2003-05-15 08:03:32 51°14.51 2°49.64 -999 -999 -999 -999 -999
2003-05-15 08:03:36 51°14.51 2°49.65 -999 -999 -999 -999 -999
2003-05-15 08:03:40 51°14.51 2°49.65 -999 -999 -999 -999 -999
2003-05-15 08:03:46 51°14.52 2°49.66 -999 -999 -999 -999 -999
2003-05-15 08:03:52 51°14.52 2°49.66 -999 -999 -999 -999 -999
2003-05-15 08:03:56 51°14.52 2°49.67 -999 -999 -999 -999 -999
2003-05-15 08:04:02 51°14.52 2°49.68 -999 -999 -999 -999 -999
2003-05-15 08:04:06 51°14.52 2°49.68 -999 -999 -999 -999 -999
2003-05-15 08:04:12 51°14.52 2°49.69 -999 -999 -999 -999 -999
2003-05-15 08:04:16 51°14.53 2°49.69 -999 -999 -999 -999 -999
2003-05-15 08:04:20 51°14.53 2°49.69 -999 -999 -999 -999 -999
2003-05-15 08:04:26 51°14.53 2°49.7 -999 -999 -999 -999 -999
2003-05-15 08:04:32 51°14.53 2°49.71 -999 -999 -999 -999 -999
2003-05-15 08:04:36 51°14.53 2°49.71 -999 -999 -999 -999 -999
2003-05-15 08:04:40 51°14.53 2°49.71 -999 -999 -999 -999 -999
2003-05-15 08:04:46 51°14.54 2°49.72 -999 -999 -999 -999 -999
2003-05-15 08:04:52 51°14.54 2°49.73 -999 -999 -999 -999 -999
2003-05-15 08:04:56 51°14.54 2°49.73 -999 -999 -999 -999 -999
2003-05-15 08:05:00 51°14.54 2°49.73 -999 -999 -999 -999 -999
2003-05-15 08:05:06 51°14.54 2°49.74 -999 -999 -999 -999 -999
2003-05-15 08:05:12 51°14.54 2°49.75 -999 -999 -999 -999 -999
2003-05-15 08:05:16 51°14.55 2°49.75 -999 -999 -999 -999 -999
2003-05-15 08:05:20 51°14.55 2°49.75 -999 -999 -999 -999 -999
2003-05-15 08:05:26 51°14.55 2°49.76 -999 -999 -999 -999 -999
2003-05-15 08:05:32 51°14.55 2°49.76 -999 -999 -999 -999 -999
2003-05-15 08:05:36 51°14.55 2°49.77 -999 -999 -999 -999 -999
2003-05-15 08:05:40 51°14.55 2°49.77 -999 -999 -999 -999 -999
2003-05-15 08:05:46 51°14.56 2°49.78 -999 -999 -999 -999 -999
2003-05-15 08:05:52 51°14.56 2°49.78 -999 -999 -999 -999 -999
2003-05-15 08:05:56 51°14.56 2°49.79 -999 -999 -999 -999 -999
2003-05-15 08:06:00 51°14.56 2°49.79 -999 -999 -999 -999 -999
2003-05-15 08:06:06 51°14.56 2°49.8 -999 -999 -999 -999 -999
2003-05-15 08:06:12 51°14.56 2°49.8 -999 -999 -999 -999 -999
2003-05-15 08:06:16 51°14.56 2°49.81 -999 -999 -999 -999 -999
2003-05-15 08:06:20 51°14.57 2°49.81 -999 -999 -999 -999 -999
2003-05-15 08:06:26 51°14.57 2°49.82 -999 -999 -999 -999 -999
2003-05-15 08:06:32 51°14.57 2°49.82 -999 -999 -999 -999 -999
2003-05-15 08:06:36 51°14.57 2°49.83 -999 -999 -999 -999 -999
2003-05-15 08:06:40 51°14.57 2°49.83 -999 -999 -999 -999 -999
2003-05-15 08:06:46 51°14.57 2°49.84 -999 -999 -999 -999 -999
2003-05-15 08:06:52 51°14.57 2°49.84 -999 -999 -999 -999 -999
2003-05-15 08:06:56 51°14.58 2°49.85 -999 -999 -999 -999 -999
2003-05-15 08:07:00 51°14.58 2°49.85 -999 -999 -999 -999 -999
2003-05-15 08:07:06 51°14.58 2°49.86 -999 -999 -999 -999 -999
2003-05-15 08:07:12 51°14.58 2°49.86 -999 -999 -999 -999 -999
2003-05-15 08:07:16 51°14.58 2°49.87 -999 -999 -999 -999 -999
2003-05-15 08:07:22 51°14.58 2°49.87 -999 -999 -999 -999 -999
2003-05-15 08:07:26 51°14.58 2°49.88 -999 -999 -999 -999 -999
2003-05-15 08:07:32 51°14.59 2°49.88 -999 -999 -999 -999 -999
2003-05-15 08:07:36 51°14.59 2°49.88 -999 -999 -999 -999 -999
2003-05-15 08:07:40 51°14.59 2°49.89 -999 -999 -999 -999 -999
2003-05-15 08:07:46 51°14.59 2°49.89 -999 -999 -999 -999 -999
2003-05-15 08:07:52 51°14.59 2°49.9 -999 -999 -999 -999 -999
2003-05-15 08:07:56 51°14.59 2°49.9 -999 -999 -999 -999 -999
2003-05-15 08:08:02 51°14.6 2°49.91 -999 -999 -999 -999 -999
2003-05-15 08:08:06 51°14.6 2°49.91 -999 -999 -999 -999 -999
2003-05-15 08:08:12 51°14.6 2°49.92 -999 -999 -999 -999 -999
2003-05-15 08:08:16 51°14.6 2°49.92 -999 -999 -999 -999 -999
2003-05-15 08:08:20 51°14.6 2°49.93 -999 -999 -999 -999 -999
2003-05-15 08:08:26 51°14.6 2°49.93 -999 -999 -999 -999 -999
2003-05-15 08:08:32 51°14.6 2°49.94 -999 -999 -999 -999 -999
2003-05-15 08:08:36 51°14.61 2°49.94 -999 -999 -999 -999 -999
2003-05-15 08:08:40 51°14.61 2°49.95 -999 -999 -999 -999 -999
2003-05-15 08:08:46 51°14.61 2°49.95 -999 -999 -999 -999 -999
2003-05-15 08:08:52 51°14.61 2°49.96 -999 -999 -999 -999 -999
2003-05-15 08:08:56 51°14.61 2°49.96 -999 -999 -999 -999 -999
2003-05-15 08:09:00 51°14.61 2°49.97 -999 -999 -999 -999 -999
2003-05-15 08:09:06 51°14.61 2°49.97 -999 -999 -999 -999 -999
2003-05-15 08:09:12 51°14.62 2°49.98 -999 -999 -999 -999 -999
2003-05-15 08:09:16 51°14.62 2°49.98 -999 -999 -999 -999 -999
2003-05-15 08:09:20 51°14.62 2°49.99 -999 -999 -999 -999 -999
2003-05-15 08:09:26 51°14.62 2°49.99 -999 -999 -999 -999 -999
2003-05-15 08:09:32 51°14.62 2°50 -999 -999 -999 -999 -999
2003-05-15 08:09:36 51°14.62 2°50 -999 -999 -999 -999 -999
2003-05-15 08:09:40 51°14.62 2°50 -999 -999 -999 -999 -999
2003-05-15 08:09:46 51°14.63 2°50.01 -999 -999 -999 -999 -999
2003-05-15 08:09:52 51°14.63 2°50.02 -999 -999 -999 -999 -999
2003-05-15 08:09:56 51°14.63 2°50.02 -999 -999 -999 -999 -999
2003-05-15 08:10:00 51°14.63 2°50.02 -999 -999 -999 -999 -999
2003-05-15 08:10:06 51°14.63 2°50.03 -999 -999 -999 -999 -999
2003-05-15 08:10:12 51°14.63 2°50.04 -999 -999 -999 -999 -999
2003-05-15 08:10:16 51°14.63 2°50.04 -999 -999 -999 -999 -999
2003-05-15 08:10:22 51°14.64 2°50.05 -999 -999 -999 -999 -999
2003-05-15 08:10:26 51°14.64 2°50.05 -999 -999 -999 -999 -999
2003-05-15 08:10:32 51°14.64 2°50.06 -999 -999 -999 -999 -999
2003-05-15 08:10:36 51°14.64 2°50.06 -999 -999 -999 -999 -999
2003-05-15 08:10:42 51°14.64 2°50.07 -999 -999 -999 -999 -999
2003-05-15 08:10:46 51°14.64 2°50.07 -999 -999 -999 -999 -999
2003-05-15 08:10:52 51°14.64 2°50.08 -999 -999 -999 -999 -999
2003-05-15 08:10:56 51°14.65 2°50.08 -999 -999 -999 -999 -999
2003-05-15 08:11:02 51°14.65 2°50.08 -999 -999 -999 -999 -999
2003-05-15 08:11:06 51°14.65 2°50.09 -999 -999 -999 -999 -999
2003-05-15 08:11:12 51°14.65 2°50.09 -999 -999 -999 -999 -999
2003-05-15 08:11:16 51°14.65 2°50.1 -999 -999 -999 -999 -999
2003-05-15 08:11:20 51°14.65 2°50.1 -999 -999 -999 -999 -999
2003-05-15 08:11:26 51°14.65 2°50.11 -999 -999 -999 -999 -999
2003-05-15 08:11:32 51°14.66 2°50.11 -999 -999 -999 -999 -999
2003-05-15 08:11:36 51°14.66 2°50.12 -999 -999 -999 -999 -999
2003-05-15 08:11:40 51°14.66 2°50.12 -999 -999 -999 -999 -999
2003-05-15 08:11:46 51°14.66 2°50.13 -999 -999 -999 -999 -999
2003-05-15 08:11:52 51°14.66 2°50.13 -999 -999 -999 -999 -999
2003-05-15 08:11:56 51°14.66 2°50.14 -999 -999 -999 -999 -999
2003-05-15 08:12:00 51°14.67 2°50.14 -999 -999 -999 -999 -999
2003-05-15 08:12:06 51°14.67 2°50.14 -999 -999 -999 -999 -999
2003-05-15 08:12:12 51°14.67 2°50.15 -999 -999 -999 -999 -999
2003-05-15 08:12:16 51°14.67 2°50.15 -999 -999 -999 -999 -999
2003-05-15 08:12:20 51°14.67 2°50.16 -999 -999 -999 -999 -999
2003-05-15 08:12:26 51°14.68 2°50.16 -999 -999 -999 -999 -999
2003-05-15 08:12:32 51°14.68 2°50.17 -999 -999 -999 -999 -999
2003-05-15 08:12:36 51°14.68 2°50.17 -999 -999 -999 -999 -999
2003-05-15 08:12:40 51°14.68 2°50.17 -999 -999 -999 -999 -999
2003-05-15 08:12:46 51°14.68 2°50.18 -999 -999 -999 -999 -999
2003-05-15 08:12:52 51°14.69 2°50.18 -999 -999 -999 -999 -999
2003-05-15 08:12:56 51°14.69 2°50.19 -999 -999 -999 -999 -999
2003-05-15 08:13:00 51°14.69 2°50.19 -999 -999 -999 -999 -999
2003-05-15 08:13:06 51°14.69 2°50.2 -999 -999 -999 -999 -999
2003-05-15 08:13:12 51°14.69 2°50.2 -999 -999 -999 -999 -999
2003-05-15 08:13:16 51°14.69 2°50.21 -999 -999 -999 -999 -999
2003-05-15 08:13:20 51°14.7 2°50.21 -999 -999 -999 -999 -999
2003-05-15 08:13:26 51°14.7 2°50.21 -999 -999 -999 -999 -999
2003-05-15 08:13:32 51°14.7 2°50.22 -999 -999 -999 -999 -999
2003-05-15 08:13:36 51°14.7 2°50.22 -999 -999 -999 -999 -999
2003-05-15 08:13:40 51°14.7 2°50.23 -999 -999 -999 -999 -999
2003-05-15 08:13:46 51°14.7 2°50.23 -999 -999 -999 -999 -999
2003-05-15 08:13:52 51°14.71 2°50.24 -999 -999 -999 -999 -999
2003-05-15 08:13:56 51°14.71 2°50.24 -999 -999 -999 -999 -999
2003-05-15 08:14:00 51°14.71 2°50.24 -999 -999 -999 -999 -999
2003-05-15 08:14:06 51°14.71 2°50.25 -999 -999 -999 -999 -999
2003-05-15 08:14:12 51°14.71 2°50.25 -999 -999 -999 -999 -999
2003-05-15 08:14:16 51°14.72 2°50.26 -999 -999 -999 -999 -999
2003-05-15 08:14:22 51°14.72 2°50.26 -999 -999 -999 -999 -999
2003-05-15 08:14:26 51°14.72 2°50.27 -999 -999 -999 -999 -999
2003-05-15 08:14:32 51°14.72 2°50.27 -999 -999 -999 -999 -999
2003-05-15 08:14:36 51°14.72 2°50.27 -999 -999 -999 -999 -999
2003-05-15 08:14:40 51°14.73 2°50.28 -999 -999 -999 -999 -999
2003-05-15 08:14:46 51°14.73 2°50.28 -999 -999 -999 -999 -999
2003-05-15 08:14:52 51°14.73 2°50.29 -999 -999 -999 -999 -999
2003-05-15 08:14:56 51°14.73 2°50.29 -999 -999 -999 -999 -999
2003-05-15 08:15:02 51°14.73 2°50.3 -999 -999 -999 -999 -999
2003-05-15 08:15:06 51°14.74 2°50.3 -999 -999 -999 -999 -999
2003-05-15 08:15:12 51°14.74 2°50.31 -999 -999 -999 -999 -999
2003-05-15 08:15:16 51°14.74 2°50.31 -999 -999 -999 -999 -999
2003-05-15 08:15:22 51°14.74 2°50.31 -999 -999 -999 -999 -999
2003-05-15 08:15:26 51°14.74 2°50.32 -999 -999 -999 -999 -999
2003-05-15 08:15:32 51°14.75 2°50.32 -999 -999 -999 -999 -999
2003-05-15 08:15:36 51°14.75 2°50.33 -999 -999 -999 -999 -999
2003-05-15 08:15:40 51°14.75 2°50.33 -999 -999 -999 -999 -999
2003-05-15 08:15:46 51°14.75 2°50.34 -999 -999 -999 -999 -999
2003-05-15 08:15:52 51°14.76 2°50.34 -999 -999 -999 -999 -999
2003-05-15 08:15:56 51°14.76 2°50.35 -999 -999 -999 -999 -999
2003-05-15 08:16:00 51°14.76 2°50.35 -999 -999 -999 -999 -999
2003-05-15 08:16:06 51°14.76 2°50.35 -999 -999 -999 -999 -999
2003-05-15 08:16:12 51°14.76 2°50.36 -999 -999 -999 -999 -999
2003-05-15 08:16:16 51°14.77 2°50.36 -999 -999 -999 -999 -999
2003-05-15 08:16:20 51°14.77 2°50.37 -999 -999 -999 -999 -999
2003-05-15 08:16:26 51°14.77 2°50.37 -999 -999 -999 -999 -999
2003-05-15 08:16:32 51°14.77 2°50.38 -999 -999 -999 -999 -999
2003-05-15 08:16:36 51°14.77 2°50.38 -999 -999 -999 -999 -999
2003-05-15 08:16:40 51°14.78 2°50.39 -999 -999 -999 -999 -999
2003-05-15 08:16:46 51°14.78 2°50.39 -999 -999 -999 -999 -999
2003-05-15 08:16:52 51°14.78 2°50.4 -999 -999 -999 -999 -999
2003-05-15 08:16:56 51°14.78 2°50.4 -999 -999 -999 -999 -999
2003-05-15 08:17:00 51°14.78 2°50.4 -999 -999 -999 -999 -999
2003-05-15 08:17:06 51°14.79 2°50.41 -999 -999 -999 -999 -999
2003-05-15 08:17:12 51°14.79 2°50.42 -999 -999 -999 -999 -999
2003-05-15 08:17:16 51°14.79 2°50.42 -999 -999 -999 -999 -999
2003-05-15 08:17:20 51°14.79 2°50.42 -999 -999 -999 -999 -999
2003-05-15 08:17:26 51°14.8 2°50.43 -999 -999 -999 -999 -999
2003-05-15 08:17:32 51°14.8 2°50.43 -999 -999 -999 -999 -999
2003-05-15 08:17:36 51°14.8 2°50.44 -999 -999 -999 -999 -999
2003-05-15 08:17:40 51°14.8 2°50.44 -999 -999 -999 -999 -999
2003-05-15 08:17:46 51°14.8 2°50.45 -999 -999 -999 -999 -999
2003-05-15 08:17:52 51°14.81 2°50.45 -999 -999 -999 -999 -999
2003-05-15 08:17:56 51°14.81 2°50.46 -999 -999 -999 -999 -999
2003-05-15 08:18:00 51°14.81 2°50.46 -999 -999 -999 -999 -999
2003-05-15 08:18:06 51°14.81 2°50.47 -999 -999 -999 -999 -999
2003-05-15 08:18:12 51°14.81 2°50.47 -999 -999 -999 -999 -999
2003-05-15 08:18:16 51°14.82 2°50.48 -999 -999 -999 -999 -999
2003-05-15 08:18:22 51°14.82 2°50.48 -999 -999 -999 -999 -999
2003-05-15 08:18:26 51°14.82 2°50.49 -999 -999 -999 -999 -999
2003-05-15 08:18:32 51°14.82 2°50.49 -999 -999 -999 -999 -999
2003-05-15 08:18:36 51°14.82 2°50.5 -999 -999 -999 -999 -999
2003-05-15 08:18:40 51°14.83 2°50.5 -999 -999 -999 -999 -999
2003-05-15 08:18:46 51°14.83 2°50.51 -999 -999 -999 -999 -999
2003-05-15 08:18:52 51°14.83 2°50.51 -999 -999 -999 -999 -999
2003-05-15 08:18:56 51°14.83 2°50.52 -999 -999 -999 -999 -999
2003-05-15 08:19:00 51°14.83 2°50.52 -999 -999 -999 -999 -999
2003-05-15 08:19:06 51°14.84 2°50.53 -999 -999 -999 -999 -999
2003-05-15 08:19:12 51°14.84 2°50.54 -999 -999 -999 -999 -999
2003-05-15 08:19:16 51°14.84 2°50.54 -999 -999 -999 -999 -999
2003-05-15 08:19:20 51°14.84 2°50.54 -999 -999 -999 -999 -999
2003-05-15 08:19:26 51°14.84 2°50.55 -999 -999 -999 -999 -999
2003-05-15 08:19:32 51°14.85 2°50.56 -999 -999 -999 -999 -999
2003-05-15 08:19:36 51°14.85 2°50.56 -999 -999 -999 -999 -999
2003-05-15 08:19:42 51°14.85 2°50.57 -999 -999 -999 -999 -999
2003-05-15 08:19:46 51°14.85 2°50.57 -999 -999 -999 -999 -999
2003-05-15 08:19:52 51°14.85 2°50.58 -999 -999 -999 -999 -999
2003-05-15 08:19:56 51°14.86 2°50.58 -999 -999 -999 -999 -999
2003-05-15 08:20:02 51°14.86 2°50.59 -999 -999 -999 -999 -999
2003-05-15 08:20:06 51°14.86 2°50.59 -999 -999 -999 -999 -999
2003-05-15 08:20:12 51°14.86 2°50.59 -999 -999 -999 -999 -999
2003-05-15 08:20:16 51°14.87 2°50.6 -999 -999 -999 -999 -999
2003-05-15 08:20:20 51°14.87 2°50.6 -999 -999 -999 -999 -999
2003-05-15 08:20:26 51°14.87 2°50.61 -999 -999 -999 -999 -999
2003-05-15 08:20:32 51°14.87 2°50.61 -999 -999 -999 -999 -999
2003-05-15 08:20:36 51°14.88 2°50.62 -999 -999 -999 -999 -999
2003-05-15 08:20:40 51°14.88 2°50.62 -999 -999 -999 -999 -999
2003-05-15 08:20:46 51°14.88 2°50.63 -999 -999 -999 -999 -999
2003-05-15 08:20:52 51°14.88 2°50.63 -999 -999 -999 -999 -999
2003-05-15 08:20:56 51°14.88 2°50.64 -999 -999 -999 -999 -999
2003-05-15 08:21:02 51°14.89 2°50.64 -999 -999 -999 -999 -999
2003-05-15 08:21:06 51°14.89 2°50.65 -999 -999 -999 -999 -999
2003-05-15 08:21:12 51°14.89 2°50.65 -999 -999 -999 -999 -999
2003-05-15 08:21:16 51°14.89 2°50.66 -999 -999 -999 -999 -999
2003-05-15 08:21:22 51°14.9 2°50.66 -999 -999 -999 -999 -999
2003-05-15 08:21:26 51°14.9 2°50.67 -999 -999 -999 -999 -999
2003-05-15 08:21:32 51°14.9 2°50.68 -999 -999 -999 -999 -999
2003-05-15 08:21:36 51°14.9 2°50.68 -999 -999 -999 -999 -999
2003-05-15 08:21:40 51°14.9 2°50.68 -999 -999 -999 -999 -999
2003-05-15 08:21:46 51°14.91 2°50.69 -999 -999 -999 -999 -999
2003-05-15 08:21:52 51°14.91 2°50.7 -999 -999 -999 -999 -999
2003-05-15 08:21:56 51°14.91 2°50.7 -999 -999 -999 -999 -999
2003-05-15 08:22:02 51°14.91 2°50.71 -999 -999 -999 -999 -999
2003-05-15 08:22:06 51°14.91 2°50.71 -999 -999 -999 -999 -999
2003-05-15 08:22:12 51°14.92 2°50.72 -999 -999 -999 -999 -999
2003-05-15 08:22:16 51°14.92 2°50.72 -999 -999 -999 -999 -999
2003-05-15 08:22:20 51°14.92 2°50.72 -999 -999 -999 -999 -999
2003-05-15 08:22:26 51°14.92 2°50.73 -999 -999 -999 -999 -999
2003-05-15 08:22:32 51°14.93 2°50.74 -999 -999 -999 -999 -999
2003-05-15 08:22:36 51°14.93 2°50.74 -999 -999 -999 -999 -999
2003-05-15 08:22:40 51°14.93 2°50.74 -999 -999 -999 -999 -999
2003-05-15 08:22:46 51°14.93 2°50.75 -999 -999 -999 -999 -999
2003-05-15 08:22:52 51°14.94 2°50.76 -999 -999 -999 -999 -999
2003-05-15 08:22:56 51°14.94 2°50.76 -999 -999 -999 -999 -999
2003-05-15 08:23:02 51°14.94 2°50.77 -999 -999 -999 -999 -999
2003-05-15 08:23:06 51°14.94 2°50.77 -999 -999 -999 -999 -999
2003-05-15 08:23:12 51°14.94 2°50.78 -999 -999 -999 -999 -999
2003-05-15 08:23:16 51°14.95 2°50.78 -999 -999 -999 -999 -999
2003-05-15 08:23:22 51°14.95 2°50.79 -999 -999 -999 -999 -999
2003-05-15 08:23:26 51°14.95 2°50.79 -999 -999 -999 -999 -999
2003-05-15 08:23:32 51°14.95 2°50.8 -999 -999 -999 -999 -999
2003-05-15 08:23:36 51°14.95 2°50.8 -999 -999 -999 -999 -999
2003-05-15 08:23:40 51°14.96 2°50.8 -999 -999 -999 -999 -999
2003-05-15 08:23:46 51°14.96 2°50.81 -999 -999 -999 -999 -999
2003-05-15 08:23:52 51°14.96 2°50.82 -999 -999 -999 -999 -999
2003-05-15 08:23:56 51°14.96 2°50.82 -999 -999 -999 -999 -999
2003-05-15 08:24:00 51°14.96 2°50.82 -999 -999 -999 -999 -999
2003-05-15 08:24:06 51°14.97 2°50.83 -999 -999 -999 -999 -999
2003-05-15 08:24:12 51°14.97 2°50.84 -999 -999 -999 -999 -999
2003-05-15 08:24:16 51°14.97 2°50.84 -999 -999 -999 -999 -999
2003-05-15 08:24:22 51°14.97 2°50.85 -999 -999 -999 -999 -999
2003-05-15 08:24:26 51°14.97 2°50.85 -999 -999 -999 -999 -999
2003-05-15 08:24:32 51°14.97 2°50.86 -999 -999 -999 -999 -999
2003-05-15 08:24:36 51°14.98 2°50.86 -999 -999 -999 -999 -999
2003-05-15 08:24:40 51°14.98 2°50.86 -999 -999 -999 -999 -999
2003-05-15 08:24:46 51°14.98 2°50.87 -999 -999 -999 -999 -999
2003-05-15 08:24:52 51°14.98 2°50.88 -999 -999 -999 -999 -999
2003-05-15 08:24:56 51°14.98 2°50.88 -999 -999 -999 -999 -999
2003-05-15 08:25:00 51°14.98 2°50.88 -999 -999 -999 -999 -999
2003-05-15 08:25:06 51°14.98 2°50.89 -999 -999 -999 -999 -999
2003-05-15 08:25:12 51°14.98 2°50.9 -999 -999 -999 -999 -999
2003-05-15 08:25:16 51°14.98 2°50.9 -999 -999 -999 -999 -999
2003-05-15 08:25:20 51°14.99 2°50.9 -999 -999 -999 -999 -999
2003-05-15 08:25:26 51°14.99 2°50.91 -999 -999 -999 -999 -999
2003-05-15 08:25:32 51°14.99 2°50.91 -999 -999 -999 -999 -999
2003-05-15 08:25:36 51°14.99 2°50.92 -999 -999 -999 -999 -999
2003-05-15 08:25:40 51°14.99 2°50.92 -999 -999 -999 -999 -999
2003-05-15 08:25:46 51°14.99 2°50.93 -999 -999 -999 -999 -999
2003-05-15 08:25:52 51°14.99 2°50.93 -999 -999 -999 -999 -999
2003-05-15 08:25:56 51°14.99 2°50.94 -999 -999 -999 -999 -999
2003-05-15 08:26:02 51°14.99 2°50.94 -999 -999 -999 -999 -999
2003-05-15 08:26:06 51°14.99 2°50.95 -999 -999 -999 -999 -999
2003-05-15 08:26:12 51°14.99 2°50.95 -999 -999 -999 -999 -999
2003-05-15 08:26:16 51°14.99 2°50.95 -999 -999 -999 -999 -999
2003-05-15 08:26:22 51°14.99 2°50.96 -999 -999 -999 -999 -999
2003-05-15 08:26:26 51°14.99 2°50.96 -999 -999 -999 -999 -999
2003-05-15 08:26:32 51°14.99 2°50.97 -999 -999 -999 -999 -999
2003-05-15 08:26:36 51°14.99 2°50.97 -999 -999 -999 -999 -999
2003-05-15 08:26:42 51°14.99 2°50.98 -999 -999 -999 -999 -999
2003-05-15 08:26:46 51°14.99 2°50.98 -999 -999 -999 -999 -999
2003-05-15 08:26:52 51°14.99 2°50.99 -999 -999 -999 -999 -999
2003-05-15 08:26:56 51°14.99 2°50.99 -999 -999 -999 -999 -999
2003-05-15 08:27:02 51°14.99 2°51 -999 -999 -999 -999 -999
2003-05-15 08:27:06 51°14.99 2°51 -999 -999 -999 -999 -999
2003-05-15 08:27:12 51°14.99 2°51.01 -999 -999 -999 -999 -999
2003-05-15 08:27:16 51°14.99 2°51.01 -999 -999 -999 -999 -999
2003-05-15 08:27:20 51°14.99 2°51.01 -999 -999 -999 -999 -999
2003-05-15 08:27:26 51°14.99 2°51.02 -999 -999 -999 -999 -999
2003-05-15 08:27:32 51°14.99 2°51.02 -999 -999 -999 -999 -999
2003-05-15 08:27:36 51°14.99 2°51.03 -999 -999 -999 -999 -999
2003-05-15 08:27:40 51°14.99 2°51.03 -999 -999 -999 -999 -999
2003-05-15 08:27:46 51°14.99 2°51.04 -999 -999 -999 -999 -999
2003-05-15 08:27:52 51°14.99 2°51.04 -999 -999 -999 -999 -999
2003-05-15 08:27:56 51°14.99 2°51.04 -999 -999 -999 -999 -999
2003-05-15 08:28:00 51°14.99 2°51.05 -999 -999 -999 -999 -999
2003-05-15 08:28:06 51°14.99 2°51.05 -999 -999 -999 -999 -999
2003-05-15 08:28:12 51°14.99 2°51.05 -999 -999 -999 -999 -999
2003-05-15 08:28:16 51°14.99 2°51.06 -999 -999 -999 -999 -999
2003-05-15 08:28:22 51°14.99 2°51.06 -999 -999 -999 -999 -999
2003-05-15 08:28:26 51°14.99 2°51.06 -999 -999 -999 -999 -999
2003-05-15 08:28:32 51°14.99 2°51.07 -999 -999 -999 -999 -999
2003-05-15 08:28:36 51°14.99 2°51.07 -999 -999 -999 -999 -999
2003-05-15 08:28:42 51°14.99 2°51.07 -999 -999 -999 -999 -999
2003-05-15 08:28:46 51°14.99 2°51.07 -999 -999 -999 -999 -999
2003-05-15 08:28:52 51°14.99 2°51.08 -999 -999 -999 -999 -999
2003-05-15 08:28:56 51°14.99 2°51.08 -999 -999 -999 -999 -999
2003-05-15 08:29:00 51°14.99 2°51.08 -999 -999 -999 -999 -999
2003-05-15 08:29:06 51°14.99 2°51.08 -999 -999 -999 -999 -999
2003-05-15 08:29:12 51°14.99 2°51.09 -999 -999 -999 -999 -999
2003-05-15 08:29:16 51°14.98 2°51.09 -999 -999 -999 -999 -999
2003-05-15 08:29:22 51°14.98 2°51.09 -999 -999 -999 -999 -999
2003-05-15 08:29:26 51°14.98 2°51.09 -999 -999 -999 -999 -999
2003-05-15 08:29:32 51°14.98 2°51.1 -999 -999 -999 -999 -999
2003-05-15 08:29:36 51°14.98 2°51.1 -999 -999 -999 -999 -999
2003-05-15 08:29:42 51°14.98 2°51.1 -999 -999 -999 -999 -999
2003-05-15 08:29:46 51°14.98 2°51.1 -999 -999 -999 -999 -999
2003-05-15 08:29:52 51°14.98 2°51.1 -999 -999 -999 -999 -999
2003-05-15 08:29:56 51°14.98 2°51.1 -999 -999 -999 -999 -999
2003-05-15 08:30:00 51°14.98 2°51.11 -999 -999 -999 -999 -999
2003-05-15 08:30:06 51°14.98 2°51.11 -999 -999 -999 -999 -999
2003-05-15 08:30:12 51°14.98 2°51.11 -999 -999 -999 -999 -999
2003-05-15 08:30:16 51°14.98 2°51.11 -999 -999 -999 -999 -999
2003-05-15 08:30:20 51°14.98 2°51.11 -999 -999 -999 -999 -999
2003-05-15 08:30:26 51°14.98 2°51.11 -999 -999 -999 -999 -999
2003-05-15 08:30:32 51°14.98 2°51.12 -999 -999 -999 -999 -999
2003-05-15 08:30:36 51°14.97 2°51.12 -999 -999 -999 -999 -999
2003-05-15 08:30:42 51°14.97 2°51.12 -999 -999 -999 -999 -999
2003-05-15 08:30:46 51°14.97 2°51.12 -999 -999 -999 -999 -999
2003-05-15 08:30:52 51°14.97 2°51.12 -999 -999 -999 -999 -999
2003-05-15 08:30:56 51°14.97 2°51.12 -999 -999 -999 -999 -999
2003-05-15 08:31:00 51°14.97 2°51.12 -999 -999 -999 -999 -999
2003-05-15 08:31:06 51°14.97 2°51.13 -999 -999 -999 -999 -999
2003-05-15 08:31:12 51°14.97 2°51.13 -999 -999 -999 -999 -999
2003-05-15 08:31:16 51°14.97 2°51.13 -999 -999 -999 -999 -999
2003-05-15 08:31:20 51°14.97 2°51.13 -999 -999 -999 -999 -999
2003-05-15 08:31:26 51°14.96 2°51.13 -999 -999 -999 -999 -999
2003-05-15 08:31:32 51°14.96 2°51.13 -999 -999 -999 -999 -999
2003-05-15 08:31:36 51°14.96 2°51.13 -999 -999 -999 -999 -999
2003-05-15 08:31:40 51°14.96 2°51.13 -999 -999 -999 -999 -999
2003-05-15 08:31:46 51°14.96 2°51.13 -999 -999 -999 -999 -999
2003-05-15 08:31:52 51°14.96 2°51.13 -999 -999 -999 -999 -999
2003-05-15 08:31:56 51°14.96 2°51.14 -999 -999 -999 -999 -999
2003-05-15 08:32:00 51°14.96 2°51.14 -999 -999 -999 -999 -999
2003-05-15 08:32:06 51°14.95 2°51.14 -999 -999 -999 -999 -999
2003-05-15 08:32:12 51°14.95 2°51.14 -999 -999 -999 -999 -999
2003-05-15 08:32:16 51°14.95 2°51.14 -999 -999 -999 -999 -999
2003-05-15 08:32:22 51°14.95 2°51.14 -999 -999 -999 -999 -999
2003-05-15 08:32:26 51°14.95 2°51.14 -999 -999 -999 -999 -999
2003-05-15 08:32:32 51°14.95 2°51.14 -999 -999 -999 -999 -999
2003-05-15 08:32:36 51°14.94 2°51.14 -999 -999 -999 -999 -999
2003-05-15 08:32:40 51°14.94 2°51.14 -999 -999 -999 -999 -999
2003-05-15 08:32:46 51°14.94 2°51.14 -999 -999 -999 -999 -999
2003-05-15 08:32:52 51°14.94 2°51.14 -999 -999 -999 -999 -999
2003-05-15 08:32:56 51°14.94 2°51.14 -999 -999 -999 -999 -999
2003-05-15 08:33:02 51°14.94 2°51.14 -999 -999 -999 -999 -999
2003-05-15 08:33:06 51°14.93 2°51.14 -999 -999 -999 -999 -999
2003-05-15 08:33:12 51°14.93 2°51.14 -999 -999 -999 -999 -999
2003-05-15 08:33:16 51°14.93 2°51.14 -999 -999 -999 -999 -999
2003-05-15 08:33:20 51°14.93 2°51.14 -999 -999 -999 -999 -999
2003-05-15 08:33:26 51°14.93 2°51.14 -999 -999 -999 -999 -999
2003-05-15 08:33:32 51°14.93 2°51.14 -999 -999 -999 -999 -999
2003-05-15 08:33:36 51°14.92 2°51.14 -999 -999 -999 -999 -999
2003-05-15 08:33:42 51°14.92 2°51.14 -999 -999 -999 -999 -999
2003-05-15 08:33:46 51°14.92 2°51.14 -999 -999 -999 -999 -999
2003-05-15 08:33:52 51°14.92 2°51.14 -999 -999 -999 -999 -999
2003-05-15 08:33:56 51°14.92 2°51.14 -999 -999 -999 -999 -999
2003-05-15 08:34:02 51°14.91 2°51.14 -999 -999 -999 -999 -999
2003-05-15 08:34:06 51°14.91 2°51.14 -999 -999 -999 -999 -999
2003-05-15 08:34:12 51°14.91 2°51.14 -999 -999 -999 -999 -999
2003-05-15 08:34:16 51°14.91 2°51.14 -999 -999 -999 -999 -999
2003-05-15 08:34:20 51°14.91 2°51.14 -999 -999 -999 -999 -999
2003-05-15 08:34:26 51°14.9 2°51.14 -999 -999 -999 -999 -999
2003-05-15 08:34:32 51°14.9 2°51.14 -999 -999 -999 -999 -999
2003-05-15 08:34:36 51°14.9 2°51.14 -999 -999 -999 -999 -999
2003-05-15 08:34:42 51°14.9 2°51.14 -999 -999 -999 -999 -999
2003-05-15 08:34:46 51°14.9 2°51.14 -999 -999 -999 -999 -999
2003-05-15 08:34:52 51°14.89 2°51.14 -999 -999 -999 -999 -999
2003-05-15 08:34:56 51°14.89 2°51.14 -999 -999 -999 -999 -999
2003-05-15 08:35:00 51°14.89 2°51.14 -999 -999 -999 -999 -999
2003-05-15 08:35:06 51°14.89 2°51.14 -999 -999 -999 -999 -999
2003-05-15 08:35:12 51°14.89 2°51.14 -999 -999 -999 -999 -999
2003-05-15 08:35:16 51°14.88 2°51.14 -999 -999 -999 -999 -999
2003-05-15 08:35:22 51°14.88 2°51.14 -999 -999 -999 -999 -999
2003-05-15 08:35:26 51°14.88 2°51.14 -999 -999 -999 -999 -999
2003-05-15 08:35:32 51°14.87 2°51.14 -999 -999 -999 -999 -999
2003-05-15 08:35:36 51°14.87 2°51.14 -999 -999 -999 -999 -999
2003-05-15 08:35:40 51°14.87 2°51.14 -999 -999 -999 -999 -999
2003-05-15 08:35:46 51°14.86 2°51.15 -999 -999 -999 -999 -999
2003-05-15 08:35:52 51°14.86 2°51.15 -999 -999 -999 -999 -999
2003-05-15 08:35:56 51°14.85 2°51.16 -999 -999 -999 -999 -999
2003-05-15 08:36:00 51°14.85 2°51.16 -999 -999 -999 -999 -999
2003-05-15 08:36:06 51°14.84 2°51.17 -999 -999 -999 -999 -999
2003-05-15 08:36:12 51°14.84 2°51.18 -999 -999 -999 -999 -999
2003-05-15 08:36:16 51°14.83 2°51.19 -999 -999 -999 -999 -999
2003-05-15 08:36:22 51°14.83 2°51.2 -999 -999 -999 -999 -999
2003-05-15 08:36:26 51°14.82 2°51.21 -999 -999 -999 -999 -999
2003-05-15 08:36:32 51°14.82 2°51.22 -999 -999 -999 -999 -999
2003-05-15 08:36:36 51°14.81 2°51.22 -999 -999 -999 -999 -999
2003-05-15 08:36:40 51°14.81 2°51.23 -999 -999 -999 -999 -999
2003-05-15 08:36:46 51°14.8 2°51.24 -999 -999 -999 -999 -999
2003-05-15 08:36:52 51°14.79 2°51.26 -999 -999 -999 -999 -999
2003-05-15 08:36:56 51°14.79 2°51.26 -999 -999 -999 -999 -999
2003-05-15 08:37:00 51°14.78 2°51.27 -999 -999 -999 -999 -999
2003-05-15 08:37:06 51°14.78 2°51.28 -999 -999 -999 -999 -999
2003-05-15 08:37:12 51°14.77 2°51.3 -999 -999 -999 -999 -999
2003-05-15 08:37:16 51°14.77 2°51.31 -999 -999 -999 -999 -999
2003-05-15 08:37:20 51°14.77 2°51.32 -999 -999 -999 -999 -999
2003-05-15 08:37:26 51°14.76 2°51.33 -999 -999 -999 -999 -999
2003-05-15 08:37:32 51°14.76 2°51.34 -999 -999 -999 -999 -999
2003-05-15 08:37:36 51°14.75 2°51.35 -999 -999 -999 -999 -999
2003-05-15 08:37:42 51°14.75 2°51.37 -999 -999 -999 -999 -999
2003-05-15 08:37:46 51°14.75 2°51.38 -999 -999 -999 -999 -999
2003-05-15 08:37:52 51°14.74 2°51.39 -999 -999 -999 -999 -999
2003-05-15 08:37:56 51°14.74 2°51.4 -999 -999 -999 -999 -999
2003-05-15 08:38:02 51°14.74 2°51.42 -999 -999 -999 -999 -999
2003-05-15 08:38:06 51°14.73 2°51.43 -999 -999 -999 -999 -999
2003-05-15 08:38:12 51°14.73 2°51.44 -999 -999 -999 -999 -999
2003-05-15 08:38:16 51°14.73 2°51.45 -999 -999 -999 -999 -999
2003-05-15 08:38:20 51°14.72 2°51.46 -999 -999 -999 -999 -999
2003-05-15 08:38:26 51°14.72 2°51.48 -999 -999 -999 -999 -999
2003-05-15 08:38:32 51°14.71 2°51.49 -999 -999 -999 -999 -999
2003-05-15 08:38:36 51°14.71 2°51.5 -999 -999 -999 -999 -999
2003-05-15 08:38:42 51°14.7 2°51.51 -999 -999 -999 -999 -999
2003-05-15 08:38:46 51°14.7 2°51.52 -999 -999 -999 -999 -999
2003-05-15 08:38:52 51°14.69 2°51.54 -999 -999 -999 -999 -999
2003-05-15 08:38:56 51°14.69 2°51.55 -999 -999 -999 -999 -999
2003-05-15 08:39:02 51°14.68 2°51.56 -999 -999 -999 -999 -999
2003-05-15 08:39:06 51°14.68 2°51.57 -999 -999 -999 -999 -999
2003-05-15 08:39:12 51°14.67 2°51.58 -999 -999 -999 -999 -999
2003-05-15 08:39:16 51°14.67 2°51.59 -999 -999 -999 -999 -999
2003-05-15 08:39:22 51°14.66 2°51.61 -999 -999 -999 -999 -999
2003-05-15 08:39:26 51°14.66 2°51.62 -999 -999 -999 -999 -999
2003-05-15 08:39:32 51°14.65 2°51.63 -999 -999 -999 -999 -999
2003-05-15 08:39:36 51°14.65 2°51.64 -999 -999 -999 -999 -999
2003-05-15 08:39:40 51°14.64 2°51.65 -999 -999 -999 -999 -999
2003-05-15 08:39:46 51°14.63 2°51.66 -999 -999 -999 -999 -999
2003-05-15 08:39:52 51°14.63 2°51.67 -999 -999 -999 -999 -999
2003-05-15 08:39:56 51°14.62 2°51.68 -999 -999 -999 -999 -999
2003-05-15 08:40:00 51°14.62 2°51.69 -999 -999 -999 -999 -999
2003-05-15 08:40:06 51°14.61 2°51.71 -999 -999 -999 -999 -999
2003-05-15 08:40:12 51°14.61 2°51.72 -999 -999 -999 -999 -999
2003-05-15 08:40:16 51°14.6 2°51.73 -999 -999 -999 -999 -999
2003-05-15 08:40:20 51°14.6 2°51.74 -999 -999 -999 -999 -999
2003-05-15 08:40:26 51°14.59 2°51.75 -999 -999 -999 -999 -999
2003-05-15 08:40:32 51°14.58 2°51.77 -999 -999 -999 -999 -999
2003-05-15 08:40:36 51°14.58 2°51.78 -999 -999 -999 -999 -999
2003-05-15 08:40:40 51°14.58 2°51.79 -999 -999 -999 -999 -999
2003-05-15 08:40:46 51°14.57 2°51.8 -999 -999 -999 -999 -999
2003-05-15 08:40:52 51°14.56 2°51.81 -999 -999 -999 -999 -999
2003-05-15 08:40:56 51°14.56 2°51.82 -999 -999 -999 -999 -999
2003-05-15 08:41:02 51°14.55 2°51.84 -999 -999 -999 -999 -999
2003-05-15 08:41:06 51°14.55 2°51.85 -999 -999 -999 -999 -999
2003-05-15 08:41:12 51°14.54 2°51.86 -999 -999 -999 -999 -999
2003-05-15 08:41:16 51°14.54 2°51.87 -999 -999 -999 -999 -999
2003-05-15 08:41:22 51°14.53 2°51.89 -999 -999 -999 -999 -999